Waarnemingen

Advertentie
Mijn weer
Fair Isle, Groot Brittannië (3008): temperatuur & dauwpunt: 29.06.2020 04:00:00 - 05.07.2020 04:00:00 (BST)Fair Isle, Groot Brittannië (3008): temperatuur -20cm & temperatuur -100cm: 29.06.2020 04:00:00 - 05.07.2020 04:00:00 (BST)Fair Isle, Groot Brittannië (3008): windsnelheid & windstoten: 29.06.2020 04:00:00 - 05.07.2020 04:00:00 (BST)Fair Isle, Groot Brittannië (3008): windrichting: 29.06.2020 04:00:00 - 05.07.2020 04:00:00 (BST)Fair Isle, Groot Brittannië (3008): luchtdruk: 29.06.2020 04:00:00 - 05.07.2020 04:00:00 (BST)Fair Isle, Groot Brittannië (3008): zicht: 29.06.2020 04:00:00 - 05.07.2020 04:00:00 (BST)Fair Isle, Groot Brittannië (3008): neerslag: 29.06.2020 04:00:00 - 05.07.2020 04:00:00 (BST)
Datum & Tijd tt [°C] td [°C] tt -20cm [°C] tt -100cm [°C] ff [km/u] ff [kn] fx [km/u] fx [kn] dd ppp [hPa] vv [km] rr [mm]
05.07.2020 04:00:00 - - - - - - - - - - - -
05.07.2020 03:00:00 10,2 10,1 - - 4 2 - - NO 992,3 3,5 0,6
05.07.2020 02:00:00 10,3 10,2 - - 4 2 - - ONO 993,1 1,3 0,6
05.07.2020 01:00:00 10,5 10,3 - - 4 2 - - OZO 994,6 9 0,8
05.07.2020 00:00:00 10,4 10,1 - - 9 5 - - ZZO 996,1 26 0,0
04.07.2020 23:00:00 10,3 10,0 - - 5 3 - - Z 997,0 28 0,0
04.07.2020 22:00:00 10,4 10,0 - - 15 8 - - Z 997,7 35 0,0
04.07.2020 21:00:00 10,2 9,6 - - 13 7 - - Z 998,8 35 0,0
04.07.2020 20:00:00 10,4 10,1 - - 15 8 - - Z 999,3 40 0,0
04.07.2020 19:00:00 10,7 10,5 - - 16 9 - - Z 999,8 23 0,0
04.07.2020 18:00:00 10,9 10,4 - - 15 8 - - ZZW 1000,5 35 0,0
04.07.2020 17:00:00 11,5 9,8 - - 16 9 - - ZZW 1000,9 35 0,0
04.07.2020 16:00:00 11,9 10,1 - - 18 10 - - ZW 1001,2 30 0,0
04.07.2020 15:00:00 11,8 10,4 - - 18 10 - - Z 1001,5 26 0,0
04.07.2020 14:00:00 11,7 10,0 - - 13 7 - - ZZW 1001,8 30 0,0
04.07.2020 13:00:00 11,6 10,0 - - 11 6 - - Z 1001,8 35 0,0
04.07.2020 12:00:00 11,3 10,8 - - 9 5 - - Z 1001,7 22 0,0
04.07.2020 11:00:00 10,7 10,2 - - 11 6 - - ZW 1001,9 26 0,0
04.07.2020 10:00:00 10,6 10,1 13,2 11,7 11 6 - - Z 1001,7 45 0,0
04.07.2020 09:00:00 10,6 10,2 - - 9 5 - - Z 1001,5 30 0,0
04.07.2020 08:00:00 11,1 10,1 - - 11 6 - - ZZW 1001,7 45 0,0
04.07.2020 07:00:00 10,7 10,4 - - 11 6 - - Z 1002,0 50 0,0
04.07.2020 06:00:00 10,3 10,2 - - 9 5 - - Z 1001,8 22 0,0
04.07.2020 05:00:00 10,2 9,7 - - 5 3 - - ZZW 1002,0 40 0,0
04.07.2020 04:00:00 10,2 9,0 - - 2 1 - - ZZO 1001,9 50 0,0
04.07.2020 03:00:00 11,2 9,4 - - 15 8 - - O 1001,7 45 0,2
04.07.2020 02:00:00 11,0 9,0 - - 13 7 - - O 1001,8 40 0,0
04.07.2020 01:00:00 11,1 8,8 - - 16 9 - - O 1002,1 50 0,0
04.07.2020 00:00:00 10,7 8,9 - - 16 9 - - O 1001,7 35 0,0
03.07.2020 23:00:00 10,2 8,2 - - 15 8 - - O 1001,9 50 0,0
03.07.2020 22:00:00 9,9 9,0 - - 15 8 - - O 1001,8 40 0,0
03.07.2020 21:00:00 10,3 9,7 - - 15 8 - - ONO 1001,8 21 0,2
03.07.2020 20:00:00 10,5 8,7 - - 13 7 - - O 1002,1 18 0,4
03.07.2020 19:00:00 10,9 8,3 - - 18 10 - - O 1002,3 40 0,0
03.07.2020 18:00:00 10,9 8,4 - - 16 9 - - OZO 1002,4 35 0,0
03.07.2020 17:00:00 11,6 7,6 - - 21 11 - - O 1002,3 40 0,0
03.07.2020 16:00:00 11,4 7,4 - - 16 9 - - O 1003,0 40 0,0
03.07.2020 15:00:00 11,4 6,8 - - 15 8 - - OZO 1003,1 45 0,0
03.07.2020 14:00:00 11,9 7,7 - - 11 6 - - OZO 1003,6 50 0,0
03.07.2020 13:00:00 12,3 7,0 - - 8 4 - - OZO 1003,7 45 0,0
03.07.2020 12:00:00 12,0 7,9 - - 11 6 - - ZO 1003,9 50 0,0
03.07.2020 11:00:00 11,9 8,1 - - 11 6 - - Z 1003,8 50 0,0
03.07.2020 10:00:00 11,1 8,2 13,0 11,7 13 7 - - ZW 1004,3 30 0,0
03.07.2020 09:00:00 11,5 8,9 - - 15 8 - - ZW 1004,3 30 0,0
03.07.2020 08:00:00 11,0 8,0 - - 9 5 - - WZW 1004,7 40 0,0
03.07.2020 07:00:00 10,0 7,1 - - 11 6 - - WZW 1005,1 50 0,0
03.07.2020 06:00:00 9,6 6,9 - - 11 6 - - WZW 1005,3 45 0,0
03.07.2020 05:00:00 9,9 6,7 - - 9 5 - - W 1005,6 45 0,0
03.07.2020 04:00:00 9,5 7,2 - - 13 7 - - WNW 1005,8 50 0,0
03.07.2020 03:00:00 9,3 7,6 - - 18 10 - - WZW 1006,3 35 0,0
03.07.2020 02:00:00 9,5 6,8 - - 18 10 - - W 1006,8 35 0,0
03.07.2020 01:00:00 9,7 7,6 - - 21 11 - - W 1007,4 30 0,0
03.07.2020 00:00:00 9,7 7,3 - - 24 13 - - W 1007,6 26 0,0
02.07.2020 23:00:00 9,8 6,0 - - 28 15 - - W 1007,7 30 0,0
02.07.2020 22:00:00 9,8 5,8 - - 29 16 - - WZW 1007,8 28 0,0
02.07.2020 21:00:00 9,9 6,4 - - 28 15 - - W 1008,2 24 0,0
02.07.2020 20:00:00 10,3 5,5 - - 34 18 46 25 W 1008,2 35 0,0
02.07.2020 19:00:00 11,0 6,3 - - 31 17 - - W 1008,3 24 0,0
02.07.2020 18:00:00 11,6 7,2 - - 29 16 - - W 1008,3 35 0,0
02.07.2020 17:00:00 11,7 7,1 - - 29 16 - - WZW 1008,6 35 0,0
02.07.2020 16:00:00 10,7 7,0 - - 29 16 54 29 W 1008,7 35 0,0
02.07.2020 15:00:00 11,6 8,1 - - 34 18 46 25 W 1008,8 45 0,0
02.07.2020 14:00:00 10,3 6,7 - - 29 16 - - W 1008,9 29 0,0
02.07.2020 13:00:00 11,6 6,4 - - 21 11 - - W 1008,5 35 0,0
02.07.2020 12:00:00 11,4 7,2 - - 22 12 - - W 1008,5 35 0,0
02.07.2020 11:00:00 10,1 6,8 - - 16 9 - - W 1008,5 45 0,0
02.07.2020 10:00:00 9,2 5,4 13,2 11,7 24 13 - - W 1008,2 50 0,0
02.07.2020 09:00:00 7,3 5,8 - - 24 13 - - WNW 1008,1 10 0,4
02.07.2020 08:00:00 7,5 6,2 - - 18 10 - - WNW 1007,8 50 0,2
02.07.2020 07:00:00 8,0 6,2 - - 16 9 - - WNW 1007,6 40 0,2
02.07.2020 06:00:00 7,6 5,6 - - 16 9 - - W 1007,3 26 0,0
02.07.2020 05:00:00 7,2 4,0 - - 15 8 - - NW 1007,4 50 0,2
02.07.2020 04:00:00 7,9 3,7 - - 21 11 - - WNW 1007,5 50 0,0
02.07.2020 03:00:00 7,8 3,7 - - 16 9 - - WNW 1007,6 50 0,0
02.07.2020 02:00:00 7,4 4,0 - - 15 8 - - NW 1007,8 50 0,2
02.07.2020 01:00:00 7,0 5,5 - - 24 13 - - WNW 1007,9 12 0,2
02.07.2020 00:00:00 7,8 5,4 - - 16 9 - - WNW 1008,0 12 0,0
01.07.2020 23:00:00 8,4 4,2 - - 21 11 - - NNW 1007,7 50 0,0
01.07.2020 22:00:00 8,5 4,1 - - 22 12 - - NW 1007,4 50 0,0
01.07.2020 21:00:00 8,5 6,1 - - 15 8 - - NW 1007,2 40 0,0
01.07.2020 20:00:00 9,1 5,1 - - 18 10 - - NNW 1007,0 50 0,0
01.07.2020 19:00:00 9,6 5,7 - - 21 11 - - NNW 1006,8 45 0,0
01.07.2020 18:00:00 10,6 6,5 - - 22 12 - - NNW 1006,7 30 0,0
01.07.2020 17:00:00 11,1 6,1 - - 24 13 - - N 1006,6 45 0,0
01.07.2020 16:00:00 11,4 6,1 - - 24 13 - - NNW 1006,3 30 0,0
01.07.2020 15:00:00 11,6 8,0 - - 22 12 - - NNW 1006,0 26 0,0
01.07.2020 14:00:00 11,4 7,0 - - 26 14 - - NNW 1005,8 20 0,0
01.07.2020 13:00:00 11,4 7,1 - - 28 15 - - NNW 1005,5 30 0,0
01.07.2020 12:00:00 11,7 7,7 - - 24 13 - - N 1005,2 25 0,0
01.07.2020 11:00:00 11,9 6,8 - - 21 11 - - N 1004,8 45 0,0
01.07.2020 10:00:00 11,3 7,7 13,5 11,7 22 12 - - NNW 1004,5 30 0,0
01.07.2020 09:00:00 10,7 6,7 13,5 11,7 28 15 - - N 1004,4 35 0,0
01.07.2020 08:00:00 9,6 6,5 - - 26 14 - - N 1004,1 40 0,0
01.07.2020 07:00:00 9,5 6,2 - - 28 15 - - N 1003,8 16 0,0
01.07.2020 06:00:00 9,1 5,6 - - 28 15 - - N 1003,4 28 0,0
01.07.2020 05:00:00 8,9 6,0 - - 24 13 - - N 1003,3 21 0,0
01.07.2020 04:00:00 9,3 6,2 - - 29 16 - - N 1003,0 21 0,0
01.07.2020 03:00:00 9,5 6,5 - - 31 17 - - N 1002,9 20 0,2
01.07.2020 02:00:00 9,5 7,9 - - 31 17 50 27 N 1002,5 12 0,2
01.07.2020 01:00:00 10,0 8,1 - - 41 22 55 30 NNO 1002,2 16 0,0
01.07.2020 00:00:00 10,0 8,5 - - 44 24 61 33 NNO 1001,6 15 0,0
30.06.2020 23:00:00 10,0 9,9 - - 46 25 68 37 NNO 1000,9 2,9 0,2
30.06.2020 22:00:00 10,9 10,7 - - 37 20 54 29 NNO 999,8 15 0,0
30.06.2020 21:00:00 11,2 11,2 - - 34 18 46 25 N 998,8 16 0,2
30.06.2020 20:00:00 11,3 11,3 - - 21 11 - - WNW 997,8 2,3 0,2
30.06.2020 19:00:00 11,1 11,0 - - 28 15 - - W 998,4 3,5 0,0
30.06.2020 18:00:00 11,1 10,2 - - 29 16 - - W 999,1 40 0,0
30.06.2020 17:00:00 11,6 10,1 - - 26 14 - - WNW 999,6 29 0,0
30.06.2020 16:00:00 12,0 10,1 - - 18 10 - - WNW 999,9 22 0,0
30.06.2020 15:00:00 12,7 11,2 - - 22 12 - - WNW 999,8 30 0,0
30.06.2020 14:00:00 13,1 12,0 - - 18 10 - - NW 999,7 26 0,0
30.06.2020 13:00:00 13,1 12,0 - - 24 13 - - NNW 999,3 40 0,0
30.06.2020 12:00:00 13,1 12,0 - - 28 15 - - NNW 998,9 22 0,0
30.06.2020 11:00:00 13,5 12,6 - - 22 12 - - NNW 998,7 21 0,0
30.06.2020 10:00:00 13,6 12,4 13,5 11,7 18 10 - - N 998,4 17 0,0
30.06.2020 09:00:00 12,7 11,9 - - 21 11 - - N 998,1 26 0,0
30.06.2020 08:00:00 12,2 11,2 - - 26 14 - - N 997,8 26 0,0
30.06.2020 07:00:00 12,5 10,8 - - 24 13 - - N 997,2 45 0,0
30.06.2020 06:00:00 11,8 11,3 - - 26 14 - - N 996,9 18 0,0
30.06.2020 05:00:00 11,4 11,1 - - 24 13 - - NNO 996,7 19 0,0
30.06.2020 04:00:00 11,1 10,9 - - 22 12 - - NNO 996,4 19 0,0
30.06.2020 03:00:00 11,6 11,5 - - 18 10 - - NNO 996,2 12 0,0
30.06.2020 02:00:00 11,5 11,3 - - 21 11 - - NNO 996,0 9 0,0
30.06.2020 01:00:00 11,6 11,2 - - 26 14 - - NNO 995,9 11 0,0
30.06.2020 00:00:00 11,6 11,5 - - 24 13 - - NNO 995,9 10 0,0
29.06.2020 23:00:00 11,4 11,4 - - 22 12 - - NNO 995,8 1,7 0,0
29.06.2020 22:00:00 11,4 11,4 - - 28 15 - - NO 995,4 8 0,2
29.06.2020 21:00:00 11,3 11,3 - - 24 13 - - NO 995,1 0,9 0,2
29.06.2020 20:00:00 11,5 11,5 - - 24 13 - - NO 994,8 6 0,2
29.06.2020 19:00:00 11,7 11,6 - - 28 15 - - NO 994,7 7 0,0
29.06.2020 18:00:00 11,7 11,5 - - 21 11 - - ONO 994,5 7 0,4
29.06.2020 17:00:00 12,0 11,5 - - 24 13 - - NO 994,3 7 0,0
29.06.2020 16:00:00 12,8 11,3 - - 24 13 50 27 O 994,4 16 0,0
29.06.2020 15:00:00 13,1 12,1 - - 24 13 46 25 O 994,3 12 0,0
29.06.2020 14:00:00 12,7 11,0 - - 24 13 - - O 994,3 20 0,0
29.06.2020 13:00:00 12,4 11,2 - - 26 14 - - O 994,3 13 0,0
29.06.2020 12:00:00 12,8 11,9 - - 26 14 50 27 OZO 994,0 13 0,0
29.06.2020 11:00:00 12,1 11,3 - - 28 15 55 30 O 993,9 11 0,0
29.06.2020 10:00:00 11,9 11,2 13,7 11,7 34 18 52 28 O 993,7 11 0,0
29.06.2020 09:00:00 11,8 10,9 - - 35 19 55 30 O 993,3 9 0,0
29.06.2020 08:00:00 11,8 10,7 - - 37 20 54 29 O 993,1 18 0,0
29.06.2020 07:00:00 12,0 10,9 - - 35 19 48 26 O 992,9 20 0,0
29.06.2020 06:00:00 11,6 10,8 - - 31 17 46 25 O 992,8 8 0,0
29.06.2020 05:00:00 11,4 10,6 - - 28 15 - - O 992,8 12 0,0
29.06.2020 04:00:00 11,3 10,6 - - 22 12 - - OZO 992,7 9 0,0

tt = temperatuur
td = dauwpunt
tt -20cm = temperatuur -20cm
tt -100cm = temperatuur -100cm
ff = windsnelheid
fx = windstoten
dd = windrichting
ppp = luchtdruk
vv = zicht
rr = neerslag

Weerstations in de omgeving